Weather History for KTOL - January, 2014

Change the Weather History Date:

Thursday, January 30, 2014

  Actual Average Record
Temperature  
Mean Temperature 18 °F 26 °F  
Max Temperature 28 °F 33 °F 63 °F (2013)
Min Temperature 8 °F 18 °F -5 °F (1965)
Degree Days  
Heating Degree Days 47 39  
Month to date heating degree days 1476 1188  
Since 1 July heating degree days 3975 3513  
Cooling Degree Days 0 0  
Month to date cooling degree days 0 0  
Year to date cooling degree days 0 0  
Moisture  
Dew Point 8 °F    
Average Humidity 66    
Maximum Humidity 81    
Minimum Humidity 50    
Precipitation  
Precipitation 0.02 in 0.06 in 0.93 in (1982)
Month to date precipitation 3.24 1.99  
Year to date precipitation 3.24 1.99  
Snow  
Snow 0.20 in 0.40 in - ()
Month to date snowfall 39.7 11.2  
Since 1 July snowfall 51.4 20.7  
Snow Depth 5.00 in    
Sea Level Pressure  
Sea Level Pressure 30.03 in    
Wind  
Wind Speed 12 mph (SSW)    
Max Wind Speed 26 mph    
Max Gust Speed 32 mph    
Visibility 9 miles    
Events Snow    
T = Trace of Precipitation, MM = Missing Value Source: NWS Daily Summary

Daily Weather History Graph

Daily Weather History Graph

Search for Another Location

Airport or City:

Trip Planner

Search our weather history database for the weather conditions in past years. The results will help you decide how hot, cold, wet, or windy it might be!

Date:

Astronomy

Jan. 30, 2014 Rise Set
Actual Time 7:49 AM EST 5:48 PM EST
Civil Twilight 7:19 AM EST 6:18 PM EST
Nautical Twilight 6:46 AM EST 6:51 PM EST
Astronomical Twilight 6:13 AM EST 7:24 PM EST
Moon 7:13 AM EST (1/30) 6:00 PM EST (1/30)
Length of Visible Light 10h 58m
Length of Day
9h 59m
Waning Crescent, 0% of the Moon is Illuminated
Jan 30
Waning Crescent
Jan 30
New
Feb 6
First Quarter
Feb 14
Full
Feb 22
Last Quarter

Hourly Weather History & Observations

Time (EST) Temp. Windchill Dew Point Humidity Pressure Visibility Wind Dir Wind Speed Gust Speed Precip Events Conditions
12:52 AM 12.0 °F -0.4 °F 1.9 °F 64% 30.21 in 10.0 mi South 9.2 mph - N/A   Clear
1:52 AM 10.9 °F -0.8 °F 1.0 °F 64% 30.20 in 10.0 mi South 8.1 mph - N/A   Clear
2:52 AM 10.0 °F -0.9 °F -0.0 °F 64% 30.19 in 10.0 mi South 6.9 mph - N/A   Clear
3:52 AM 9.0 °F -2.2 °F -0.0 °F 67% 30.19 in 10.0 mi South 6.9 mph - N/A   Clear
4:52 AM 10.0 °F -2.9 °F -0.0 °F 64% 30.19 in 10.0 mi South 9.2 mph - N/A   Clear
5:52 AM 9.0 °F -3.2 °F -0.9 °F 64% 30.19 in 10.0 mi South 8.1 mph - N/A   Clear
6:52 AM 9.0 °F -4.2 °F -0.9 °F 64% 30.17 in 10.0 mi South 9.2 mph - N/A   Clear
7:52 AM 10.0 °F -2.9 °F -0.9 °F 61% 30.17 in 10.0 mi South 9.2 mph - N/A   Clear
8:52 AM 12.0 °F -0.4 °F 1.0 °F 61% 30.17 in 10.0 mi South 9.2 mph - N/A   Clear
9:52 AM 16.0 °F 1.7 °F 3.0 °F 57% 30.14 in 10.0 mi South 13.8 mph 23.0 mph N/A   Clear
10:52 AM 18.0 °F 4.8 °F 3.9 °F 54% 30.12 in 10.0 mi South 12.7 mph 19.6 mph N/A   Clear
11:52 AM 19.9 °F 8.6 °F 6.1 °F 55% 30.09 in 10.0 mi South 10.4 mph - 0.01 in   Clear
12:52 PM 19.9 °F 7.3 °F 7.0 °F 57% 30.04 in 10.0 mi South 12.7 mph 18.4 mph N/A   Clear
1:52 PM 21.9 °F 9.2 °F 7.0 °F 53% 29.99 in 10.0 mi South 13.8 mph 24.2 mph N/A   Clear
2:52 PM 23.0 °F 10.6 °F 8.1 °F 53% 29.94 in 10.0 mi South 13.8 mph 24.2 mph N/A   Scattered Clouds
3:52 PM 24.1 °F 12.5 °F 8.1 °F 51% 29.86 in 10.0 mi South 12.7 mph 21.9 mph N/A   Mostly Cloudy
4:52 PM 24.1 °F 11.0 °F 9.0 °F 53% 29.85 in 10.0 mi South 16.1 mph 23.0 mph N/A   Scattered Clouds
5:52 PM 25.0 °F 13.6 °F 9.0 °F 51% 29.89 in 10.0 mi SSW 12.7 mph 19.6 mph N/A   Overcast
6:52 PM 25.0 °F 17.1 °F 10.0 °F 53% 29.89 in 10.0 mi SW 6.9 mph - N/A   Overcast
7:50 PM 26.6 °F 11.1 °F 15.8 °F 64% 29.88 in 2.0 mi WSW 26.5 mph 32.2 mph 0.00 in Snow Light Snow
7:52 PM 26.1 °F 10.7 °F 16.0 °F 66% 29.91 in 2.0 mi WSW 25.3 mph 32.2 mph 0.00 in Snow Light Snow
8:24 PM 24.8 °F 11.9 °F 19.4 °F 80% 29.87 in 1.0 mi SW 16.1 mph 21.9 mph 0.00 in Snow Light Snow
8:33 PM 24.8 °F 11.9 °F 21.2 °F 86% 29.88 in 1.0 mi SW 16.1 mph 24.2 mph 0.01 in Snow Light Snow
8:40 PM 24.8 °F 13.4 °F 21.2 °F 86% 29.88 in 3.0 mi SSW 12.7 mph - 0.01 in Snow Light Snow
8:52 PM 24.1 °F 12.5 °F 21.0 °F 88% 29.91 in 9.0 mi SW 12.7 mph 20.7 mph 0.01 in   Overcast
9:52 PM 26.1 °F 14.0 °F 21.0 °F 81% 29.90 in 10.0 mi SW 15.0 mph 28.8 mph N/A   Overcast
10:52 PM 27.0 °F 16.7 °F 19.9 °F 75% 29.90 in 10.0 mi SW 11.5 mph 23.0 mph N/A   Overcast
11:52 PM 28.0 °F 16.1 °F 19.9 °F 72% 29.90 in 10.0 mi SSW 16.1 mph 25.3 mph N/A   Overcast